Карточка аэропорта UWGG

Внимание!
Информация на этой странице в стадии наполнения.
Если вы не увидели какой-то информации, или заметили неточность - пожалуйста сообщите нам!
Спасибо!
Команда RU-STAFF
Название аэропортаСтригино
Название аэропорта (англ.)Strigino
Превышение256 ft. (78 m.)
Координаты56°13.8', 43°47.202'
Высота перехода5000 ft
Эшелон переходаQNH>=1013hPa:FL060; QNH<1013hPa:FL070; QNH<977hPa:FL080
Коды ответчика2120-2147
Зона ОрВДМосква РПИ (UUWV)
Данные METARUWGG 252200Z VRB01MPS CAVOK 13/10 Q1007 R36R/090070 NOSIG
Проноз погоды (TAF)UWGG 251955Z 2521/2621 32003G09MPS 8000 SCT030 TX23/2612Z TN11/2601Z TEMPO 2606/2618 34008G14MPS
NOTAMshow/hide NOTAM
AWOS   TABLE

Информация о ВПП

ВПП Длина ВПП (м.) Покрытие Курс ВПП Частота ILS
18L3000Цементобетон179108.1
36L2806Асфальтобетон359109.5
18R2806Асфальтобетон179109.9
36R3000Цементобетон359110.5

Диспетчерские позиции

Позывной Наименование органа УВД Частота
UWGG_GNDНижний-Руление121.800
UWGG_APPНижний-Подход124.700
UWGG_R_APPНижний-Круг120.800
UWGG_TWRНижний-Вышка120.400



Спутниковое изображение